カタログに戻る

STARLINK-1202

運用中通信VLEO
NORAD 45183·PAYLOAD·🇺🇸 United States

打ち上げ Feb 17, 2020 から Cape Canaveral Space Force Station

Loading…

次のパス (今後24時間)

TLE

最新Source: CelesTrak SupGP

元期: Sep 15, 2026, 01:33 UTC

1 45183C 20012F   26258.06506944  .00002729  00000+0  61151-4 0  2588
2 45183  53.1517 232.6136 0002328  87.2371 349.1900 15.42847860    13

AllMySatでSTARLINK-1202をリアルタイム追跡

Download on the App Store